YM Initiative — A8HX4 — position and weather

sailwx.info

Track history (hours):
 
Tides and Currents Weather Stations Pressure Air Temp Water Temp Dewpoint Dewpoint Depression Visibility Wind Speed Wind Dir Waves Ship Positions

YM Initiative

Last reported at 2014-Sep-28 00:32 UTC. Time now 2014-Oct-02 10:40 UTC.
Position N 01°15' E 104°04'.

Length 173 m; draft 7.7 m.

Type: Cargo ship. MMSI: 635961368.

Date/timePositionNaut miles runAvg speedWind from/ knotsBaromVisibWave heightAir tempDewpointWater temp
2014-Sep-28 00:32N 01°15' E 104°04'1515.8
2014-Sep-27 23:33N 01°11' E 103°49'7 7.2
2014-Sep-27 22:33N 01°17' E 103°45'1 0.6
2014-Sep-27 21:33N 01°17' E 103°46'0 0.0
2014-Sep-27 20:33N 01°17' E 103°46'0 0.0
2014-Sep-27 19:33N 01°17' E 103°46'0 0.1
2014-Sep-27 18:33N 01°17' E 103°46'0 0.0
2014-Sep-27 17:30N 01°17' E 103°46'0 0.1
2014-Sep-27 16:33N 01°17' E 103°46'0 0.0
2014-Sep-27 15:30N 01°17' E 103°46'0 0.0
2014-Sep-27 14:33N 01°17' E 103°46'0 0.0
2014-Sep-27 13:33N 01°17' E 103°46'0 0.0
2014-Sep-27 12:21N 01°17' E 103°46'0 0.1
2014-Sep-27 11:33N 01°17' E 103°46'2 2.0
2014-Sep-27 10:33N 01°15' E 103°46'1 1.3
2014-Sep-27 09:30N 01°14' E 103°47'0 0.1
2014-Sep-27 08:33N 01°14' E 103°47'0 0.1
2014-Sep-27 07:33N 01°14' E 103°47'2 1.7
2014-Sep-27 06:33N 01°13' E 103°48'9 8.8
2014-Sep-27 05:33N 01°15' E 103°57'315 9.5
2014-Sep-25 20:32S 02°50' E 107°16'1515.5
2014-Sep-25 19:34S 03°05' E 107°19'2416.1
2014-Sep-25 18:05S 03°28' E 107°26'  
2014-Sep-22 00:09N 01°15' E 104°05'814.0
2014-Sep-21 23:34N 01°13' E 103°57'1514.7
2014-Sep-21 22:33N 01°06' E 103°44'1313.2
2014-Sep-21 21:34N 01°07' E 103°31'1513.1
2014-Sep-21 20:23N 01°16' E 103°19'3 0.1
2014-Sep-20 05:18N 01°19' E 103°20'811.2
2014-Sep-20 04:33N 01°14' E 103°27'1212.0
2014-Sep-20 03:33N 01°12' E 103°39'9 8.7
2014-Sep-20 02:33N 01°16' E 103°47'0 0.2
2014-Sep-20 01:28N 01°17' E 103°47'0 0.0
2014-Sep-20 00:31N 01°17' E 103°47'0 0.0
2014-Sep-19 23:31N 01°17' E 103°47'0 0.0
2014-Sep-19 22:31N 01°17' E 103°47'0 0.0
2014-Sep-19 21:31N 01°17' E 103°47'0 0.0
2014-Sep-19 20:31N 01°17' E 103°47'0 0.0
2014-Sep-19 19:31N 01°17' E 103°47'0 0.0
2014-Sep-19 18:31N 01°17' E 103°47'0 0.0
2014-Sep-19 17:31N 01°17' E 103°47'0 0.0
2014-Sep-19 16:31N 01°17' E 103°47'0 0.0
2014-Sep-19 15:31N 01°17' E 103°47'0 0.0
2014-Sep-19 14:31N 01°17' E 103°47'0 0.0
2014-Sep-19 13:31N 01°17' E 103°47'0 0.0
2014-Sep-19 12:28N 01°17' E 103°47'0 0.0
2014-Sep-19 11:31N 01°17' E 103°47'1 0.5
2014-Sep-19 10:33N 01°16' E 103°47'5 5.1
2014-Sep-19 09:33N 01°12' E 103°50'6 6.3
2014-Sep-19 08:34N 01°14' E 103°56'10 9.6
2014-Sep-19 07:33N 01°16' E 104°05'  
Track history (hours):
 
Tides and Currents Weather Stations Pressure Air Temp Water Temp Dewpoint Dewpoint Depression Visibility Wind Speed Wind Dir Waves Ship Positions

YM Initiative

Last reported at 2014-Sep-28 00:32 UTC. Time now 2014-Oct-02 10:40 UTC.
Position N 01°15' E 104°04'.

Length 173 m; draft 7.7 m.

Type: Cargo ship. MMSI: 635961368.

Date/timePositionNaut miles runAvg speedWind from/ knotsBaromVisibWave heightAir tempDewpointWater temp
2014-Sep-28 00:32N 01°15' E 104°04'1515.8
2014-Sep-27 23:33N 01°11' E 103°49'7 7.2
2014-Sep-27 22:33N 01°17' E 103°45'1 0.6
2014-Sep-27 21:33N 01°17' E 103°46'0 0.0
2014-Sep-27 20:33N 01°17' E 103°46'0 0.0
2014-Sep-27 19:33N 01°17' E 103°46'0 0.1
2014-Sep-27 18:33N 01°17' E 103°46'0 0.0
2014-Sep-27 17:30N 01°17' E 103°46'0 0.1
2014-Sep-27 16:33N 01°17' E 103°46'0 0.0
2014-Sep-27 15:30N 01°17' E 103°46'0 0.0
2014-Sep-27 14:33N 01°17' E 103°46'0 0.0
2014-Sep-27 13:33N 01°17' E 103°46'0 0.0
2014-Sep-27 12:21N 01°17' E 103°46'0 0.1
2014-Sep-27 11:33N 01°17' E 103°46'2 2.0
2014-Sep-27 10:33N 01°15' E 103°46'1 1.3
2014-Sep-27 09:30N 01°14' E 103°47'0 0.1
2014-Sep-27 08:33N 01°14' E 103°47'0 0.1
2014-Sep-27 07:33N 01°14' E 103°47'2 1.7
2014-Sep-27 06:33N 01°13' E 103°48'9 8.8
2014-Sep-27 05:33N 01°15' E 103°57'315 9.5
2014-Sep-25 20:32S 02°50' E 107°16'1515.5
2014-Sep-25 19:34S 03°05' E 107°19'2416.1
2014-Sep-25 18:05S 03°28' E 107°26'  
2014-Sep-22 00:09N 01°15' E 104°05'814.0
2014-Sep-21 23:34N 01°13' E 103°57'1514.7
2014-Sep-21 22:33N 01°06' E 103°44'1313.2
2014-Sep-21 21:34N 01°07' E 103°31'1513.1
2014-Sep-21 20:23N 01°16' E 103°19'3 0.1
2014-Sep-20 05:18N 01°19' E 103°20'811.2
2014-Sep-20 04:33N 01°14' E 103°27'1212.0
2014-Sep-20 03:33N 01°12' E 103°39'9 8.7
2014-Sep-20 02:33N 01°16' E 103°47'0 0.2
2014-Sep-20 01:28N 01°17' E 103°47'0 0.0
2014-Sep-20 00:31N 01°17' E 103°47'0 0.0
2014-Sep-19 23:31N 01°17' E 103°47'0 0.0
2014-Sep-19 22:31N 01°17' E 103°47'0 0.0
2014-Sep-19 21:31N 01°17' E 103°47'0 0.0
2014-Sep-19 20:31N 01°17' E 103°47'0 0.0
2014-Sep-19 19:31N 01°17' E 103°47'0 0.0
2014-Sep-19 18:31N 01°17' E 103°47'0 0.0
2014-Sep-19 17:31N 01°17' E 103°47'0 0.0
2014-Sep-19 16:31N 01°17' E 103°47'0 0.0
2014-Sep-19 15:31N 01°17' E 103°47'0 0.0
2014-Sep-19 14:31N 01°17' E 103°47'0 0.0
2014-Sep-19 13:31N 01°17' E 103°47'0 0.0
2014-Sep-19 12:28N 01°17' E 103°47'0 0.0
2014-Sep-19 11:31N 01°17' E 103°47'1 0.5
2014-Sep-19 10:33N 01°16' E 103°47'5 5.1
2014-Sep-19 09:33N 01°12' E 103°50'6 6.3
2014-Sep-19 08:34N 01°14' E 103°56'10 9.6
2014-Sep-19 07:33N 01°16' E 104°05'  

Dump ship's entire track history